Regional Weather Roundup
Issued by NWS

Home | Current Version | Previous Version | Text Only | Print | Product List | Glossary Off
Versions: 1 2 3 4 5 6 7 8 9 10 11 12 13 14 15 16 17 18 19 20 21 22 23 24 25 26 27 28 29 30 31 32 33 34 35 36 37 38 39 40 41 42 43 44 45 46 47 48 49 50

579
ASUS45 KBOU 270107
RWRCO

WEATHER ROUNDUP FOR COLORADO
NATIONAL WEATHER SERVICE DENVER/BOULDER CO
700 PM MDT FRI AUG 26 2016

NOTE: "FAIR" INDICATES FEW OR NO CLOUDS BELOW 12000 FEET WITH NO
SIGNIFICANT WEATHER AND/OR OBSTRUCTIONS TO VISIBILITY.

COZ001>005-013-030-031-270200-
...NORTHWEST COLORADO...

CITY           SKY/WX    TMP DP  RH WIND       PRES   REMARKS
CRAIG          LGT RAIN  57  46  66 W16G22    30.21R
HAYDEN         MOCLDY    59  37  44 NW12      30.18R
MEEKER         TSTM      64  39  39 NW21G28   30.19R
MOUNT WERNER   NOT AVBL
STEAMBOAT SPGS MOCLDY    63  37  37 E6        30.17S
WALDEN         FAIR      55  32  41 NW15      30.28R
$$

COZ006>008-011-270200-
...WEST CENTRAL VALLEYS...

CITY           SKY/WX    TMP DP  RH WIND       PRES   REMARKS
GRAND JUNCTION FAIR      77  47  34 SE5       30.04S
MONTROSE       FAIR      73  42  32 N5        30.13S
EAGLE          PTCLDY    70  37  30 W7        30.17S
RIFLE          FAIR      75  32  20 W13       30.08R
DELTA          FAIR      78  37  23 CALM      30.08S
NUCLA          FAIR     N/A N/A N/A SW6       30.17S
$$

COZ017>023-064>068-270200-
...SOUTHWEST COLORADO...

CITY           SKY/WX    TMP DP  RH WIND       PRES   REMARKS
DURANGO        FAIR      69  38  32 SW8       30.19S
CORTEZ         FAIR      72  46  39 W8        30.15F
PAGOSA SPRINGS FAIR      64  41  42 E3        30.27S
TELLURIDE      MOCLDY    55  45  69 CALM      30.36F
WOLF CREEK PAS MOCLDY    41  37  87 SW12      30.54S
$$

COZ009-010-012-014-032>034-037-058>063-270200-
...CENTRAL COLORADO...

CITY           SKY/WX    TMP DP  RH WIND       PRES   REMARKS
ASPEN          MOCLDY    59  44  57 SW6       30.23S
BUENA VISTA    FAIR      64  33  31 NW6       30.24R
COPPER MTN     MOCLDY    48  28  46 W6        30.50R
BERTHOUD PASS  FAIR      36  23  60 MISG      30.51R
COTTONWOOD PAS FAIR      59  28  31 SW10G18   30.37R
GUNNISON       MOCLDY    64  37  36 CALM      30.26R
KREMMLING      FAIR      55  37  50 CALM      30.25S
LEADVILLE      FAIR      54  29  38 NW8       30.36R
MONARCH PASS   FAIR      46  28  49 SW17      30.59R
SALIDA         FAIR      71  32  24 CALM      30.27R
SUNLIGHT       FAIR      54  32  43 E3        30.45S
WILKERSON PASS CLOUDY    48  32  53 CALM      30.48R
$$

COZ069>075-270200-
...SAN LUIS VALLEY/SANGRE DE CRISTO MOUNTAINS...

CITY           SKY/WX    TMP DP  RH WIND       PRES   REMARKS
ALAMOSA        FAIR      66  39  37 W10       30.23S
LA VETA PASS   FAIR      54  34  47 S7        30.40R
SAGUACHE       FAIR      64  37  36 S3        30.25R
$$

COZ035-036-038>040-270200-
...NORTHERN COLORADO FRONT RANGE...

CITY           SKY/WX    TMP DP  RH WIND       PRES   REMARKS
DENVER INTL AP MOCLDY    75  36  24 CALM      30.07S
DMNS CITY PARK   N/A     73  40  30 E2        30.07R
AURORA         PTCLDY    75  39  27 N3        30.09S
FRONT RANGE AP MOCLDY    75  37  25 SE5G21    30.09S
ERIE MUNI ARPT FAIR      74  40  29 CALM      30.05R
BOULDER MUN AP FAIR      73  34  23 CALM      30.06R
CENTENNIAL     FAIR      74  35  24 NE3       30.10S
BROOMFIELD     MOCLDY    72  41  33 S3        30.09R
FORT COLLINS   FAIR      66  52  59 E15       30.04R
LONGMONT       FAIR      74  36  25 W6        30.07R
$$

COZ041-046-047-076>085-087-088-270200-
...PIKES PEAK/PALMER DIVIDE AND SOUTHERN FOOTHILLS...

CITY           SKY/WX    TMP DP  RH WIND       PRES   REMARKS
COLO. SPRINGS  FAIR      69  47  45 W5        30.14R
A. F. ACADEMY  FAIR      65  47  51 SW5       30.15R
SCHRIEVER AFB  NOT AVBL
ELLICOTT       NOT AVBL
FALCON         FAIR      65  45  47 S3        30.19R
FORT CARSON    PTCLDY    69  46  44 W2        30.10S
LIMON          FAIR      69  47  45 SE8       30.10R
MONUMENT HILL  MOCLDY    64  34  32 W3        30.20R
TRINIDAD       FAIR      70  47  43 E10       30.11R
$$

COZ042>045-048>051-090-091-270200-
...NORTHEAST COLORADO...

CITY           SKY/WX    TMP DP  RH WIND       PRES   REMARKS
GREELEY ARPT   FAIR      64  45  48 E12G18    30.06S
AKRON          FAIR      62  54  74 E15       30.08S
BURLINGTON     FAIR      67  55  65 SE10      30.07R
WRAY           FAIR      61  52  72 E7        30.09R
STERLING       FAIR      64  55  72 E7        30.04R
HOLYOKE        MOCLDY    61  55  82 E5        30.09R
FORT MORGAN    FAIR      68  52  57 NE12      30.06F
$$

COZ086-089-092>099-270200-
...SOUTHEAST COLORADO...

CITY           SKY/WX    TMP DP  RH WIND       PRES   REMARKS
PUEBLO         FAIR      79  46  31 SE9       30.03S
LA JUNTA       FAIR      78  50  37 SE7       30.02S
LAMAR          FAIR      81  50  33 S7        29.99S
SPRINGFIELD      N/A     68  59  73 SW3       30.04F
$$




USA.gov is the U.S. government's official web portal to all federal, state and local government web resources and services.